CAPE
0 2 1 2 1 0 1 2 1 1 2 1 0 0 0 0 0 0 0 0 33 1124 901 1008 926 1173 917 1205 1196 884 1009 449 365 282 485 419 436 332 238 167 119 220 378 315 201
1 1 1 2 1 0 1 2 1 1 1 0 0 0 0 0 0 0 0 715 262 1177 850 875 1125 1184 1307 1152 1078 843 169 181 368 294 478 403 417 175 217 145 147 156 254 202 155
1 1 1 2 2 1 2 2 0 1 0 0 0 0 0 0 0 0 969 697 1105 922 824 1093 1434 1422 829 959 401 271 373 172 306 253 281 322 416 156 163 298 147 179 199 142 122
1 1 1 1 1 1 1 1 0 1 0 0 0 0 0 0 0 0 1314 851 965 805 937 655 477 1124 563 389 315 467 104 143 186 180 207 276 77 127 217 265 212 175 142 103 104
1 1 1 1 1 0 1 1 2 1 0 0 0 0 0 0 0 0 1403 594 123 857 945 765 542 562 448 236 332 140 88 131 174 151 121 152 130 174 321 130 245 204 117 82 77
2 2 1 1 1 1 1 1 1 0 0 0 0 0 0 0 0 0 33 86 585 1032 466 589 711 501 525 347 295 83 201 125 229 228 218 216 389 462 257 150 161 152 160 97 50
5 3 1 1 1 2 0 1 0 0 0 0 0 0 0 0 0 0 111 452 810 503 291 336 871 832 445 227 157 90 179 283 271 265 224 254 216 473 440 224 255 218 241 157 103
5 2 1 1 4 1 1 0 0 0 0 0 0 0 0 0 0 2 334 586 655 438 400 677 581 565 553 439 275 149 78 104 200 231 159 258 221 587 530 504 423 338 308 263 125
4 4 2 2 0 1 0 0 0 0 0 0 0 0 48 0 0 52 139 412 643 657 544 305 686 557 252 347 261 256 29 92 192 219 268 210 464 734 597 592 497 400 404 343 262
2 2 2 0 2 0 0 0 0 0 0 0 0 0 0 59 171 286 51 429 619 565 440 619 636 513 285 448 220 234 103 104 198 140 138 264 177 545 773 455 403 332 405 345 340
4 2 0 1 2 0 0 0 0 0 0 0 0 0 209 220 158 72 203 483 479 643 714 347 559 162 203 202 233 352 191 149 226 295 269 317 398 462 795 716 436 340 320 341 289
2 2 1 1 0 0 0 0 0 0 0 0 0 26 410 255 249 219 598 742 886 657 382 273 193 221 140 157 180 260 227 279 479 368 486 377 540 464 563 793 721 569 389 287 275
1 3 1 0 0 0 0 0 0 0 0 0 0 37 607 584 565 655 774 962 807 284 194 470 469 266 284 249 314 253 301 276 165 813 772 743 799 652 595 617 683 614 528 393 275
3 2 1 0 0 0 0 0 0 0 0 0 0 3 625 529 745 643 730 930 695 627 524 486 564 176 248 190 95 59 218 110 314 362 518 1290 573 463 427 541 621 698 646 505 451
4 3 1 3 0 0 0 0 0 0 0 0 0 0 10 102 168 909 883 968 668 586 650 432 487 386 277 99 79 165 238 331 293 286 338 609 252 404 220 383 570 680 723 655 502
4 1 0 0 0 0 0 0 0 0 0 0 0 0 0 76 1 54 941 833 732 688 659 501 532 597 406 273 218 182 396 431 380 303 295 336 607 170 18 334 225 480 627 798 734
1 0 1 0 0 0 0 0 0 0 0 0 0 0 0 0 0 1 337 740 830 605 620 676 673 629 460 437 486 467 464 499 416 360 488 225 527 317 36 186 453 665 672 818 915
0 0 0 0 0 0 0 0 0 0 0 0 0 0 0 0 0 0 120 423 658 599 413 392 348 559 323 155 354 295 603 430 504 349 263 176 62 617 463 628 1118 1128 1001 1036 1156
0 0 0 0 0 0 0 0 0 0 0 0 0 0 0 0 0 0 0 15 286 475 366 418 389 103 0 0 0 23 252 188 272 215 265 188 383 190 230 448 917 1233 1095 1305 1559
0 0 0 0 0 0 0 0 0 0 0 0 0 0 0 0 0 0 0 0 0 0 0 29 157 91 6 0 0 0 0 6 238 241 169 153 205 187 133 322 1353 1508 1344 1241 1373
0 0 0 0 0 0 0 0 0 0 0 0 0 0 0 0 0 0 0 0 0 0 0 0 0 0 0 0 0 0 0 0 0 0 34 16 107 233 223 545 1730 1651 1151 855 816
0 0 0 0 0 0 0 0 0 0 0 0 0 0 0 0 0 0 0 0 0 0 0 0 0 0 0 0 0 0 0 0 1 7 23 24 63 1017 1479 1807 1897 1218 765 518 510
0 0 0 0 0 0 0 0 0 0 0 0 0 0 0 0 0 0 0 0 0 0 0 0 0 0 1 0 0 0 0 0 0 0 1 15 42 1391 1547 1484 1552 1035 687 372 248
0 0 0 0 0 0 0 0 0 0 0 0 0 0 0 0 0 0 0 0 0 0 0 0 0 0 0 2 0 3 0 0 2 3 5 10 15 1300 1062 1558 964 1023 642 335 254
0 0 0 0 0 0 0 0 0 0 0 0 0 0 0 0 0 0 0 0 0 0 0 0 0 0 0 0 0 0 0 0 0 0 15 8 0 884 1257 1519 1297 1172 928 949 935
0 0 0 0 0 0 0 0 0 0 0 0 0 0 0 0 0 7 20 18 11 17 0 0 8 0 0 0 0 0 0 0 1 0 8 13 6 1389 1532 1817 1293 1210 935 917 892
0 0 0 0 0 0 0 0 0 0 0 0 0 0 2 4 0 0 0 0 0 0 0 0 4 33 15 19 20 25 6 2 6 3 50 42 1182 1191 1541 1606 1465 1297 1126 1198 1083
CIN
0 0 0 0 0 0 0 0 0 0 0 0 0 0 0 0 0 0 0 0 -68 -291 -262 -29 -48 -33 -46 -4 -24 -10 -4 -3 -1 -21 0 -1 0 -28 -49 -57 -54 -25 -11 -17 -60
0 0 0 0 0 0 0 0 0 0 0 0 0 0 0 0 0 0 0 -344 -405 -278 -47 -34 -16 -41 0 -1 -1 -257 -58 -15 -2 -24 0 0 -3 -47 -30 -31 -39 -39 -25 -72 -70
0 0 0 0 0 0 0 0 0 0 0 0 0 0 0 0 0 0 -402 -382 -311 -243 -39 -50 -52 -22 0 -2 -1 -242 -5 -2 0 -2 -4 -2 0 -27 -22 -2 -15 -30 -61 -79 -55
0 0 0 0 0 0 0 0 0 0 0 0 0 0 0 0 0 0 -336 -365 -312 -88 -16 -25 -48 -6 -3 -2 0 -3 -3 -5 -3 -7 -9 -3 -4 -48 -21 -3 -4 -34 -54 -69 -46
0 0 0 0 0 0 0 0 0 0 0 0 0 0 0 0 0 0 -329 -350 -165 -42 0 0 -35 -16 -97 0 -2 -2 0 -2 -4 -4 -4 -21 -5 -20 -13 -53 -12 -28 -70 -46 -17
0 0 0 0 0 0 0 0 0 0 0 0 0 0 0 0 0 0 -106 -85 -41 -8 -13 -45 -40 -11 0 0 -164 -3 0 -9 0 -1 -2 -6 0 0 -17 -53 -49 -49 -29 -26 -11
0 0 0 0 0 0 0 0 0 0 0 0 0 0 0 0 0 0 -83 -29 -17 -43 -40 -48 -5 -1 -2 -2 -2 -15 0 0 0 0 0 0 -1 0 -9 -20 -28 -30 -10 -5 -8
0 0 0 0 0 0 0 0 0 0 0 0 0 0 0 -3 0 -10 -40 -28 -18 -59 -46 -15 -20 -1 -11 -1 0 -1 -1 -2 -2 0 -7 -15 -64 0 -10 0 0 -2 -3 -1 -10
0 0 0 0 0 0 0 0 0 0 0 0 0 0 -28 0 0 -47 -40 -25 -26 -18 -21 -49 -13 0 -6 -1 0 -12 -141 -36 0 -1 -2 -1 -16 -4 0 0 0 0 0 -1 -1
0 0 0 0 0 0 0 0 0 0 0 0 0 0 0 -71 -58 -44 -50 -28 -16 -3 -12 -10 0 0 -4 0 -6 -26 -83 -1 -3 0 0 -1 -2 0 0 0 0 0 0 -1 0
0 0 0 0 0 0 0 0 0 0 0 0 0 0 -39 -63 -82 -59 -29 -23 -13 -7 -1 -63 -1 -4 0 -50 -66 -61 -33 -1 -1 -3 0 0 -7 -7 0 0 0 0 -1 0 0
0 0 0 0 0 0 0 0 0 0 0 0 0 -75 -30 -50 -57 -41 -16 -1 -3 -1 -15 -2 -165 -7 -10 0 -12 -3 0 -7 -5 0 0 -1 0 0 0 0 0 0 -2 -6 0
0 0 0 0 0 0 0 0 0 0 0 0 0 -100 -25 -13 -1 -6 -21 0 0 -135 -27 -22 0 -2 0 -19 0 -1 -4 -18 -3 0 -9 -5 -2 -1 -1 0 -5 0 0 -1 -2
0 -1 -2 0 0 0 0 0 0 0 0 0 0 -140 -17 -8 0 0 -12 -1 0 -2 -10 -24 -8 -32 -1 -1 -1 -167 -50 -4 -4 0 -49 -4 -14 -2 -1 0 0 0 0 -1 0
0 0 -1 0 0 0 0 0 0 0 0 0 0 0 -235 -115 -56 0 0 0 -1 -4 0 -26 0 0 -2 -6 -16 -45 0 0 0 0 0 -1 -1 -55 -5 -3 0 0 0 0 0
0 0 0 0 0 0 0 0 0 0 0 0 0 0 0 -160 -40 -72 0 0 0 0 -5 -12 -18 -1 -1 -2 -6 -16 0 0 -2 0 -2 -166 -71 -11 -20 0 -15 0 0 -1 -1
0 0 0 0 0 0 0 0 0 0 0 0 0 0 0 0 0 -61 -8 0 0 0 -2 0 -2 -1 -2 0 0 -2 0 0 -1 -40 -21 -95 -32 -15 -51 -17 -10 -25 -22 -16 -10
0 0 0 0 0 0 0 0 0 0 0 0 0 0 0 0 0 0 -21 0 0 0 -9 -5 -17 -4 0 -1 -1 0 -10 0 -2 0 -8 -157 -135 0 -11 -21 -44 -71 -101 -123 -65
0 0 0 0 0 0 0 0 0 0 0 0 0 0 0 0 0 0 0 0 -1 0 0 0 0 -3 0 0 0 -25 -2 0 0 0 0 0 -3 -1 -7 -9 -35 -48 -125 -112 -85
0 0 0 0 0 0 0 0 0 0 0 0 0 0 0 0 0 0 0 0 0 0 0 -7 -4 -4 0 0 0 0 0 0 -2 0 -1 -1 -1 -28 -5 0 -8 -56 -164 -190 -162
0 0 0 0 0 0 0 0 0 0 0 0 0 0 0 0 0 0 0 0 0 0 0 0 0 0 0 0 0 0 0 0 0 0 -4 0 0 0 -1 -4 -4 -121 -303 -368 -367
0 0 0 0 0 0 0 0 0 0 0 0 0 0 0 0 0 0 0 0 0 0 0 0 0 0 0 0 0 0 0 0 0 0 0 0 0 -19 -28 -42 -65 -322 -414 -455 -440
0 0 0 0 0 0 0 0 0 0 0 0 0 0 0 0 0 0 0 0 0 0 0 0 0 0 0 0 0 0 0 0 0 0 0 0 0 -39 -73 -111 -234 -348 -404 -474 -492
0 0 0 0 0 0 0 0 0 0 0 0 0 0 0 0 0 0 0 0 0 0 0 0 0 0 0 -1 0 0 0 0 0 0 0 0 -1 -37 -43 -95 -284 -283 -368 -434 -432
0 0 0 0 0 0 0 0 0 0 0 0 0 0 0 0 0 0 0 0 0 0 0 0 0 0 0 0 0 0 0 0 0 0 0 -1 -1 0 -3 -28 -174 -202 -238 -214 -189
0 0 0 0 0 0 0 0 0 0 0 0 0 0 0 0 0 0 -1 0 0 -3 0 0 -29 0 0 0 0 0 0 0 -13 0 -1 -1 -5 -4 -17 -88 -180 -172 -182 -144 -129
0 0 0 0 0 0 0 0 0 0 0 0 0 0 0 -3 0 0 0 0 0 0 0 0 -25 -10 -17 -9 -5 0 -1 -1 0 -2 -6 -8 -8 0 -50 -69 -129 -130 -112 -79 -73
Wind_Speed
14 14 14 14 13 12 12 11 11 11 11 11 11 12 12 12 14 9 11 9 7 14 6 7 6 6 7 4 10 5 3 5 12 5 12 8 10 6 6 11 8 3 15 19 18
15 14 14 14 13 13 12 11 10 11 11 11 11 12 12 11 12 13 12 11 16 12 10 5 3 3 5 5 6 3 6 7 11 14 13 6 10 11 11 12 12 9 19 20 19
15 14 14 14 13 13 13 12 11 11 11 12 11 12 12 13 12 10 13 15 12 13 6 4 7 8 8 9 3 13 2 8 11 10 9 10 10 7 11 11 12 15 19 19 17
15 14 14 14 14 13 13 12 12 11 10 12 12 11 11 10 1 10 10 15 12 16 6 4 3 14 6 4 3 3 9 12 10 11 11 9 9 8 5 10 14 15 18 18 16
15 15 15 15 14 13 13 13 12 10 11 11 11 11 9 11 7 12 13 13 14 13 9 4 4 9 14 9 8 9 11 13 12 8 15 9 8 7 6 6 9 17 17 17 15
14 15 15 15 15 14 12 13 12 11 10 11 10 9 9 7 6 14 14 15 10 11 5 2 9 9 8 5 5 8 13 13 8 10 8 11 10 6 7 12 15 16 16 15 14
15 15 16 15 14 13 12 13 12 12 9 9 9 8 12 7 7 14 14 12 7 6 1 6 13 13 5 3 4 10 14 11 10 7 7 9 11 8 11 13 15 15 14 14 12
15 16 16 15 13 13 13 14 13 12 10 9 7 10 2 2 8 13 11 7 5 2 11 7 6 9 5 5 10 8 10 5 12 8 6 9 11 14 13 13 13 14 13 12 13
16 14 15 14 13 12 12 14 11 8 7 7 9 9 8 3 14 14 11 8 6 9 6 4 11 9 7 11 12 7 10 21 11 9 9 9 8 14 13 11 13 13 14 13 13
16 14 14 14 13 11 12 9 6 5 8 9 10 10 9 12 15 13 10 8 8 8 10 12 5 8 8 13 3 2 14 4 9 13 5 9 5 10 14 13 11 14 14 14 14
16 14 15 14 11 12 10 6 8 8 11 7 13 4 10 15 13 13 13 14 11 8 5 2 8 6 9 16 11 28 9 5 5 9 9 5 13 11 12 13 13 14 15 15 15
16 14 15 13 11 10 8 9 9 9 12 6 2 3 11 17 14 15 15 14 10 11 12 12 11 12 4 6 12 9 4 3 6 2 6 4 12 9 15 14 13 14 16 16 17
16 13 13 11 11 6 11 5 6 6 9 11 9 9 14 18 14 17 17 16 14 8 7 4 3 5 5 8 13 7 7 2 6 9 11 9 14 9 12 11 12 12 13 16 17
15 12 11 10 4 6 6 2 5 4 7 14 11 8 13 14 12 17 17 12 9 6 6 13 12 5 8 7 9 11 24 7 15 11 3 17 4 8 9 13 14 14 14 14 17
15 11 9 7 12 7 7 5 4 6 7 15 15 12 13 16 13 15 16 14 13 10 9 7 11 9 2 7 9 11 4 5 5 13 11 16 8 6 12 11 13 13 16 15 15
14 9 6 7 7 6 4 3 7 9 1 9 11 12 15 17 10 11 16 15 10 8 17 11 18 4 2 3 6 6 10 11 13 16 13 15 18 7 10 8 9 9 11 14 15
14 6 7 8 1 2 5 7 9 10 3 9 12 17 17 16 16 10 15 17 15 13 13 14 16 14 9 13 9 9 17 11 4 8 8 8 18 9 12 9 7 5 2 6 12
14 1 9 7 3 6 7 9 8 6 1 3 5 13 18 16 15 13 15 16 18 21 7 9 10 22 10 10 17 2 19 7 12 13 6 14 3 7 12 12 12 8 2 4 10
12 7 6 5 2 6 9 10 3 1 6 5 8 12 16 16 7 15 13 16 18 21 19 16 17 15 10 8 10 13 17 16 17 19 18 15 7 13 18 16 12 12 7 7 7
7 7 5 3 4 7 9 13 3 5 7 7 10 12 14 15 10 16 12 10 14 10 11 13 17 13 12 4 11 13 17 13 11 15 16 18 12 8 6 13 16 12 10 7 8
7 4 6 4 5 8 9 0 0 3 6 6 9 5 13 12 14 13 12 8 6 7 7 15 15 15 16 14 14 10 12 13 16 12 12 12 2 9 6 10 16 13 12 10 11
8 3 6 5 9 4 7 1 3 8 6 8 7 10 8 10 9 13 14 5 7 8 9 9 13 13 18 13 11 9 16 16 13 13 14 12 12 10 13 12 15 14 11 9 9
5 3 5 7 7 7 4 6 6 6 8 5 7 5 2 10 9 8 8 13 3 8 4 7 9 14 19 16 19 10 12 15 19 17 20 16 10 12 13 13 15 12 11 9 8
6 4 5 5 4 9 1 0 5 4 11 6 9 4 7 9 6 7 7 7 4 8 9 6 14 17 15 18 16 13 13 17 16 12 16 15 15 14 9 12 9 11 11 10 9
2 5 5 1 5 6 5 3 7 5 9 5 7 11 12 11 9 11 13 7 10 10 6 9 15 16 19 19 20 19 22 18 22 22 17 19 19 10 12 13 11 11 13 14 14
7 6 1 3 4 8 5 5 8 3 6 8 8 13 6 7 12 11 7 8 8 7 9 12 15 12 19 18 19 21 23 21 20 16 19 19 17 15 14 14 13 11 9 10 11
6 1 6 4 6 7 5 5 8 6 11 9 9 13 7 8 12 11 13 11 13 12 12 15 14 12 17 15 18 13 15 20 12 12 14 10 8 7 6 10 12 12 11 11 11
Wind_Direction
348 349 342 339 344 346 341 343 335 331 327 326 327 319 318 314 297 222 238 95 156 165 220 179 225 233 239 249 247 235 206 93 127 9 119 141 113 84 92 128 147 90 133 139 143
343 346 341 335 341 340 336 334 332 326 320 319 319 313 315 323 260 237 114 118 144 165 205 195 184 237 227 233 224 17 33 119 105 195 117 130 102 119 140 145 144 151 117 134 154
341 344 339 333 337 334 332 329 327 321 316 313 312 310 311 306 255 78 131 138 160 195 167 193 264 248 233 229 203 7 6 111 73 86 125 118 111 147 132 157 156 144 145 152 160
340 341 336 331 332 331 328 326 320 317 313 307 305 305 313 253 321 81 129 146 175 219 195 221 239 250 225 265 92 168 93 95 116 109 112 102 127 150 355 54 147 146 152 161 169
339 337 334 329 329 330 325 319 314 317 306 300 298 307 275 216 57 118 134 154 184 224 216 269 311 35 271 96 216 196 108 107 93 124 94 131 110 91 89 96 129 140 158 169 178
334 331 330 326 326 324 322 313 309 304 296 290 289 300 248 242 101 141 152 169 183 222 151 181 288 333 318 41 132 124 94 101 125 111 134 125 132 156 122 132 133 152 168 175 182
334 331 329 325 324 321 319 307 303 296 285 274 275 266 259 80 141 163 166 190 134 235 160 215 258 288 312 124 261 127 134 139 141 159 140 165 165 117 150 150 152 168 177 179 183
331 332 329 326 323 321 316 304 298 286 271 256 249 245 35 143 170 167 181 167 197 206 244 297 279 277 314 170 228 208 156 151 141 178 136 136 281 129 157 165 165 177 181 186 183
332 330 330 327 323 320 309 304 292 261 236 213 223 229 121 151 178 176 179 180 184 212 240 291 260 279 170 219 219 158 309 153 144 215 135 253 202 131 165 194 168 184 184 189 185
335 330 327 327 322 316 306 287 320 202 211 211 268 251 164 187 170 167 173 153 197 170 202 230 282 270 228 217 226 316 198 187 105 167 212 203 197 158 172 194 188 183 189 189 193
334 329 327 323 320 312 294 185 195 183 205 291 170 281 162 133 148 180 173 188 176 257 224 212 261 230 274 108 248 217 129 224 257 94 300 301 213 146 181 210 194 185 186 196 200
334 327 323 320 316 312 259 259 34 349 194 213 284 296 140 153 173 177 180 199 211 201 158 201 215 237 323 185 237 263 229 337 208 56 270 237 261 213 193 194 213 189 186 200 195
331 320 319 315 320 258 247 32 330 312 244 165 201 176 161 193 178 174 202 219 217 144 187 301 298 50 236 236 242 221 157 203 299 211 232 250 235 227 214 184 203 205 196 192 201
326 313 310 317 286 180 192 74 279 290 255 146 191 169 178 214 198 179 202 223 237 201 280 185 274 242 240 249 276 105 278 176 212 241 125 263 172 179 187 183 196 204 196 205 196
321 305 291 263 321 216 59 302 288 239 251 145 158 128 176 215 126 182 190 225 266 305 230 333 221 216 294 333 316 162 320 302 257 256 254 182 247 321 167 165 179 204 197 205 201
325 303 268 200 233 346 299 271 249 235 135 153 143 192 191 212 185 157 196 228 261 257 282 178 286 252 300 310 305 337 252 227 242 253 264 50 312 122 318 116 108 163 192 204 209
332 277 222 306 153 152 267 234 222 261 124 152 186 185 202 193 214 192 197 202 232 213 228 242 236 231 239 257 190 245 269 271 282 332 343 47 228 137 197 105 93 90 71 210 217
338 163 197 299 307 272 237 236 265 11 132 24 207 194 209 210 211 196 212 231 217 259 241 235 229 258 216 243 281 276 302 289 262 267 235 160 322 78 100 116 112 112 78 324 272
318 203 193 131 122 249 242 234 239 44 23 251 195 228 209 226 242 213 219 248 238 214 239 276 266 166 192 249 265 278 246 266 296 282 285 273 231 156 148 143 124 94 75 41 36
265 163 96 152 230 231 247 268 12 329 295 249 246 213 222 203 217 248 230 229 256 283 309 294 285 284 289 185 258 265 291 286 233 282 301 315 288 351 28 154 112 101 75 62 72
255 198 108 201 226 232 249 170 190 164 276 271 266 272 251 262 210 236 223 233 189 279 269 272 263 255 256 212 248 213 224 228 270 283 297 298 322 77 131 45 101 101 76 52 51
282 195 123 222 227 247 267 48 11 260 204 265 279 298 298 266 265 250 275 231 96 281 252 252 271 261 258 254 241 282 296 299 290 267 243 257 273 74 94 82 96 96 105 85 73
289 81 167 230 266 197 88 243 263 259 245 241 252 265 284 277 267 278 297 76 66 254 320 331 243 257 244 239 238 225 268 256 255 267 270 282 290 108 112 104 104 122 119 112 103
278 203 151 221 307 300 330 173 234 205 277 281 297 298 256 253 230 287 257 166 183 271 39 321 272 275 287 305 326 297 282 296 299 277 293 283 280 124 126 122 123 115 128 124 124
298 57 5 315 108 334 286 338 282 216 224 248 237 260 268 264 254 248 251 260 189 169 227 257 277 295 296 302 301 299 287 283 278 285 281 298 308 110 133 130 132 127 138 151 154
335 328 291 293 223 265 166 220 303 360 270 247 242 286 279 272 288 293 341 291 299 187 235 258 267 256 268 253 247 253 268 290 271 265 271 266 265 81 97 112 118 142 153 151 142
2 263 276 138 248 256 7 5 311 338 270 279 320 311 250 15 353 341 317 295 284 276 273 282 289 285 277 282 283 265 256 247 241 287 322 299 122 161 106 125 145 158 176 163 151